This is the latest recevied weather packets stored in our database for station/object N4NVD-13. If no packets are shown the sender has not sent any weather packets the latest 10 day(s).
| Time | Temp. | Humidity | Pressure | Rain* | Wind** | Luminosity | Snow |
|---|---|---|---|---|---|---|---|
| 1778023451 | 27.78° C | 85% | 1004.9 hPa | 0 mm | - | 102 W/m² | - |
| 1778023147 | 27.78° C | 84% | 1005 hPa | 0 mm | - | 103 W/m² | - |
| 1778022845 | 28.33° C | 84% | 1004.5 hPa | 0 mm | - | 137 W/m² | - |
| 1778022543 | 28.33° C | 84% | 1004.9 hPa | 0 mm | - | 177 W/m² | - |
| 1778022241 | 28.33° C | 84% | 1004.7 hPa | 0 mm | - | 182 W/m² | - |
| 1778021937 | 28.33° C | 84% | 1004.8 hPa | 0 mm | - | 136 W/m² | - |
| 1778021634 | 28.33° C | 83% | 1004.9 hPa | 0 mm | - | 149 W/m² | - |
| 1778021329 | 28.89° C | 81% | 1004.8 hPa | 0 mm | - | 170 W/m² | - |
| 1778021027 | 28.89° C | 80% | 1005 hPa | 0 mm | - | 191 W/m² | - |
| 1778020724 | 29.44° C | 80% | 1004.9 hPa | 0 mm | - | 269 W/m² | - |
| 1778020421 | 28.89° C | 80% | 1004.8 hPa | 0 mm | - | 325 W/m² | - |
| 1778020117 | 28.89° C | 80% | 1004.8 hPa | 0 mm | - | 152 W/m² | - |
| 1778019813 | 29.44° C | 80% | 1005 hPa | 0 mm | - | 256 W/m² | - |
| 1778019510 | 28.89° C | 80% | 1004.9 hPa | 0 mm | - | 164 W/m² | - |
| 1778019207 | 29.44° C | 79% | 1005 hPa | 0 mm | - | 329 W/m² | - |
| 1778018904 | 29.44° C | 80% | 1004.8 hPa | 0 mm | - | 231 W/m² | - |
| 1778018601 | 30° C | 80% | 1005.1 hPa | 0 mm | - | 241 W/m² | - |
| 1778018299 | 29.44° C | 80% | 1004.9 hPa | 0 mm | - | 210 W/m² | - |
| 1778017997 | 28.89° C | 81% | 1005 hPa | 0 mm | - | 261 W/m² | - |
| 1778017694 | 28.89° C | 81% | 1005.1 hPa | 0 mm | - | 306 W/m² | - |
| 1778017392 | 29.44° C | 80% | 1005.1 hPa | 0 mm | - | 399 W/m² | - |
| 1778017088 | 30° C | 79% | 1004.8 hPa | 0 mm | - | 328 W/m² | - |
| 1778016787 | 28.89° C | 81% | 1005.3 hPa | 0 mm | - | 489 W/m² | - |
| 1778016482 | 28.89° C | 81% | 1005.3 hPa | 0 mm | - | 251 W/m² | - |
| 1778016179 | 29.44° C | 80% | 1005.3 hPa | 0 mm | - | 254 W/m² | - |
* Rain latest hour (hover to see other rain measurements)
** Current wind speed in m/s (hover to see current wind gust speed)